Location: *
(28.3744°N, 81.5492°W)
Time: 03:16:43
(UTC+00:00)

ERS-1 Rocket - Pass Details

Date: 15 June 2025
Orbit: 746 x 753 km, 98.2° (Epoch: 11 July)

Event Time Altitude Azimuth Distance (km) Brightness Sun altitude
Exits shadow 02:56:44 34° 233° (SW) 1,219 4.0 -26.9°
Maximum altitude 02:57:48 38° 261° (W) 1,133 4.0 -27.1°
Drops below altitude 10° 03:02:26 10° 329° (NNW) 2,274 6.4 -27.7°
Sets 03:04:53 0° 338° (NNW) 3,201 7.4 -28.0°
